EHI
0 0 1 3 3 3 3 3 3 3 3 3 3 3 3 3 3 1 2 6 12 17 19 18 15 10 6 5 4 4 3 1 0 0 0 0 0 0 1 1 1 0 0
0 1 2 3 3 3 3 3 3 3 2 3 3 3 3 3 3 2 2 4 9 14 16 17 15 12 9 6 6 5 4 2 1 1 0 0 0 0 0 0 0 0 0
1 2 3 3 3 3 2 2 2 1 1 2 2 2 2 2 3 3 2 2 4 8 12 15 15 14 11 8 6 6 5 4 4 3 1 0 0 0 0 0 0 0 0
2 3 3 3 3 3 2 2 2 1 2 2 1 1 2 3 3 3 2 1 0 2 6 10 13 13 11 8 7 7 7 7 7 5 3 1 0 0 1 0 0 0 0
3 3 3 3 4 3 3 3 3 3 2 1 0 1 2 2 2 2 1 0 0 0 2 4 7 9 9 9 8 8 8 7 7 5 3 2 1 0 0 0 0 0 0
4 4 4 4 4 3 3 3 3 3 2 1 0 0 1 1 1 1 0 0 0 0 0 1 2 3 5 7 9 9 8 7 6 6 5 3 2 1 1 0 0 0 0
5 4 4 4 4 3 2 3 3 2 1 0 0 0 0 0 0 0 0 0 0 0 0 0 0 0 2 4 6 8 9 8 7 7 6 5 4 3 2 1 1 0 0
6 6 5 4 4 3 2 2 3 1 0 0 0 0 0 0 0 0 0 0 0 0 0 0 0 0 0 1 3 6 8 8 7 7 6 5 5 4 3 3 2 1 1
9 8 7 6 6 3 2 2 2 1 0 0 0 0 0 0 0 0 0 0 0 0 0 0 0 0 0 0 1 3 5 6 6 6 5 5 5 5 4 3 3 3 2
11 11 10 9 8 5 3 3 2 0 0 0 0 0 0 0 0 0 0 0 0 0 0 0 0 0 0 0 0 1 1 3 5 6 5 5 6 7 6 4 3 3 3
11 12 12 10 9 7 6 5 2 1 0 0 0 0 0 0 0 0 0 0 0 0 0 0 0 0 0 0 0 0 0 1 2 4 5 5 6 7 6 5 4 3 3
11 13 13 11 10 9 8 5 2 1 0 0 0 0 0 0 0 0 0 0 0 0 0 0 0 0 0 0 0 0 0 0 1 1 3 3 4 5 5 4 3 2 1
11 13 14 13 11 10 9 6 2 0 0 0 0 0 0 0 0 0 0 0 0 0 0 0 0 0 0 0 0 1 1 1 0 0 1 1 2 3 3 2 1 1 0
11 12 14 14 11 9 8 6 3 1 0 0 0 0 0 0 0 0 0 0 0 0 0 0 0 0 0 0 0 1 1 1 0 0 0 0 1 1 1 1 0 0 0
13 13 13 12 10 8 7 6 4 2 1 1 0 0 0 0 0 0 0 0 0 0 0 0 0 0 0 0 0 0 0 0 0 0 0 0 0 0 0 0 0 0 0
16 15 13 11 10 8 7 6 5 3 2 1 0 0 0 0 0 0 0 0 0 0 0 0 0 0 0 0 0 0 0 0 0 0 0 0 0 0 0 0 0 0 0
17 16 13 12 12 11 9 7 6 4 2 1 0 0 0 0 0 0 0 0 0 0 0 0 0 0 0 0 0 0 0 0 0 0 0 0 0 0 0 0 0 0 0
17 16 14 13 12 12 10 9 7 5 3 2 1 0 0 0 0 0 0 1 1 1 1 1 1 1 1 0 0 0 0 0 0 0 0 0 0 0 0 0 0 0 0
17 16 15 13 13 12 11 10 8 6 5 4 2 1 1 1 1 1 2 2 2 2 2 2 2 2 2 1 0 0 0 0 0 0 0 0 0 0 0 0 0 0 0
16 15 14 13 12 11 9 9 8 5 4 3 3 2 2 2 3 4 4 3 3 3 3 3 3 3 2 1 0 0 0 0 0 0 0 0 0 0 0 0 0 0 0
14 13 11 10 9 8 6 6 5 4 2 1 2 3 3 4 5 5 4 3 2 2 2 2 2 1 1 0 0 0 0 0 0 0 0 0 0 0 0 0 0 0 0
14 14 12 8 5 4 3 2 2 2 1 1 1 2 3 4 4 3 2 1 1 1 1 1 1 0 0 0 0 0 0 0 0 0 0 0 0 0 0 0 0 0 0
19 18 16 12 6 3 1 1 1 1 0 0 1 1 1 2 2 1 1 1 0 0 0 0 0 0 0 0 0 0 0 0 0 0 0 0 0 0 0 0 0 0 0
20 20 20 16 10 5 2 1 0 0 0 0 0 0 0 1 1 2 2 1 0 0 0 0 0 0 0 0 0 0 0 0 0 0 0 0 0 0 0 0 0 0 0
15 16 17 14 11 7 4 1 0 0 0 0 0 0 0 0 1 1 2 1 0 0 0 0 0 0 0 0 0 0 0 0 0 0 0 0 0 0 0 0 0 0 0
10 12 12 12 10 7 4 1 0 0 0 0 0 0 0 0 0 1 2 1 0 0 0 0 0 0 0 0 0 0 0 0 0 0 0 0 0 0 0 0 0 0 0
Wind_Speed
2 2 2 1 1 1 2 1 1 1 1 1 2 2 3 3 3 3 3 10 12 12 12 12 12 11 11 10 10 9 9 9 9 8 8 9 9 9 8 8 8 8 8
3 2 2 2 1 1 2 2 2 2 1 1 2 2 3 3 3 4 3 6 11 12 12 12 12 12 11 11 10 9 9 9 10 9 9 9 9 9 8 8 8 8 8
3 3 2 2 1 1 1 1 1 1 1 1 1 2 2 3 3 4 4 3 4 10 12 12 12 12 12 11 11 10 10 9 9 9 9 9 9 9 9 8 8 8 7
3 3 2 2 1 1 1 1 1 1 0 0 1 1 1 2 3 3 4 4 3 4 8 12 12 12 12 12 11 11 11 10 10 10 10 9 9 9 8 8 8 8 8
3 3 2 2 1 1 1 1 1 1 1 1 1 1 1 1 2 3 3 4 4 3 3 6 9 10 11 11 11 12 11 11 11 11 11 10 10 9 9 8 8 8 8
2 2 2 2 1 1 1 1 1 1 1 1 1 0 1 1 1 2 3 3 3 4 3 3 3 5 9 9 10 11 12 12 11 11 11 11 11 10 10 9 9 9 9
2 2 1 1 1 1 2 1 1 1 1 1 1 1 2 1 0 1 2 2 3 3 4 4 3 2 3 6 8 9 11 12 12 11 11 10 11 11 11 11 10 10 9
1 2 2 2 2 1 1 1 1 1 0 1 2 1 2 3 2 1 1 2 2 2 3 4 3 3 2 2 4 9 10 11 12 12 11 11 10 10 10 10 10 10 10
1 1 2 2 2 2 1 1 1 2 1 1 2 3 2 2 2 2 1 1 1 2 2 2 4 3 4 3 3 6 10 11 12 12 12 11 11 10 10 11 10 10 10
2 2 2 2 2 2 2 2 2 2 2 1 1 1 2 3 2 1 2 1 0 1 1 2 3 3 3 3 3 5 7 9 11 12 12 12 11 11 11 11 11 11 11
1 2 2 2 2 2 2 2 1 2 2 2 1 1 0 0 1 2 1 2 1 1 1 1 1 2 2 3 3 4 6 8 9 10 11 12 11 11 11 11 12 12 11
1 2 2 2 2 2 2 2 2 2 2 1 1 1 1 1 1 2 1 0 1 2 1 0 0 1 1 2 3 5 6 7 8 8 8 9 9 10 10 11 11 11 11
1 2 1 1 1 1 2 2 2 1 1 1 1 1 1 1 2 2 2 1 0 1 1 1 1 1 1 1 2 4 4 5 6 7 7 7 7 7 8 8 9 9 10
2 2 2 2 1 2 2 2 1 1 1 1 1 1 1 1 1 2 3 3 1 1 1 2 1 1 0 0 1 2 1 2 3 4 5 5 5 5 5 6 7 7 7
1 1 2 2 2 2 2 2 1 1 1 0 0 1 1 0 1 1 2 3 3 2 1 1 1 1 1 0 1 1 1 2 3 3 4 4 4 4 4 4 4 4 5
0 1 1 2 2 2 2 2 1 1 1 0 1 1 1 1 1 1 1 1 2 3 2 1 1 1 1 0 0 0 1 2 3 4 3 3 3 3 3 3 3 3 3
1 1 1 2 2 2 2 2 1 2 2 2 2 2 2 2 2 1 1 1 1 2 2 1 1 1 1 1 1 1 0 0 1 2 3 3 3 3 2 2 2 2 2
1 1 2 2 2 2 2 2 2 2 2 2 2 3 2 2 2 2 2 1 1 1 2 1 1 1 1 1 1 0 1 1 1 1 2 3 3 3 3 2 2 2 2
2 2 2 2 1 2 2 2 2 3 3 3 3 3 2 3 3 2 2 2 1 2 2 2 0 1 1 1 2 2 2 1 1 2 3 3 3 3 3 3 2 2 2
3 2 2 2 2 2 2 2 3 3 3 3 3 3 3 3 2 2 2 2 2 2 2 2 1 1 1 1 1 1 2 2 2 3 3 3 3 3 3 3 3 3 3
3 3 3 3 3 3 3 3 3 3 3 3 3 3 3 5 5 3 3 2 3 2 2 2 1 1 2 1 1 1 1 1 2 2 2 2 2 2 1 2 2 2 3
3 3 4 4 3 3 5 6 5 4 3 3 2 2 3 4 6 6 6 5 4 3 2 1 1 1 1 1 0 1 1 1 1 2 1 2 2 1 1 1 2 2 2
3 4 3 3 3 3 5 6 6 4 4 3 2 2 2 4 4 3 5 7 6 6 4 3 2 1 1 1 0 1 1 1 1 1 1 1 2 1 1 2 3 2 2
4 3 3 3 3 3 4 5 5 4 3 3 2 2 2 2 3 3 4 5 4 4 3 2 2 1 0 1 2 3 2 1 1 1 2 1 1 1 2 2 3 3 2
3 3 3 3 4 3 3 4 4 3 3 2 2 2 2 2 3 5 5 4 3 3 4 5 4 4 5 4 3 3 3 3 1 1 1 1 0 1 1 2 3 4 3
3 3 3 3 4 3 3 4 4 3 3 2 2 2 3 3 3 4 4 4 3 1 2 3 4 5 5 4 5 3 2 2 1 0 1 1 0 1 1 2 2 2 2
Wind_Direction
159 158 164 173 179 181 190 202 202 177 178 180 173 163 167 169 171 173 175 179 178 179 179 179 177 178 177 177 177 177 177 176 174 175 174 170 167 168 169 170 170 169 168
151 143 145 156 180 190 190 187 186 179 182 162 166 177 179 173 175 174 182 185 186 186 186 186 185 185 185 184 184 184 183 184 181 180 181 178 174 174 176 178 179 178 175
154 151 153 168 197 197 184 163 162 153 160 156 174 192 186 182 179 179 184 186 192 195 193 194 193 192 192 192 191 189 188 186 186 186 189 186 183 182 183 186 185 184 183
159 151 160 186 202 183 153 160 158 130 127 163 206 220 199 187 186 182 184 188 189 197 202 200 197 196 197 198 197 195 191 190 191 191 192 193 191 188 189 191 191 189 188
170 162 175 193 178 149 156 187 144 145 176 214 213 216 224 213 206 189 180 187 187 187 190 201 200 198 200 202 203 202 199 199 199 200 199 199 197 194 196 196 196 195 196
180 167 183 196 160 142 164 165 158 169 187 209 226 277 268 245 213 188 189 179 180 184 184 194 196 204 205 208 208 206 203 201 199 202 204 203 203 202 202 203 203 204 204
192 181 191 186 163 165 193 181 160 160 222 138 80 358 335 318 269 215 182 161 176 180 175 183 179 188 202 212 214 208 204 203 202 204 207 207 207 206 206 209 210 211 210
190 178 172 192 187 164 160 153 140 140 210 143 138 110 355 350 350 271 192 177 185 172 176 184 174 178 196 196 207 210 212 209 208 206 206 207 208 206 209 212 211 211 212
194 183 182 186 180 162 180 191 168 159 197 252 166 152 159 223 298 327 303 191 171 162 183 174 175 186 193 194 206 216 217 214 211 212 211 211 211 212 213 214 216 216 215
206 201 201 191 184 173 179 196 170 164 161 213 255 205 185 172 167 301 334 356 117 172 186 194 191 194 196 197 200 200 212 213 214 217 216 216 216 216 217 220 222 222 221
236 219 200 197 193 189 188 181 161 162 162 180 207 232 207 159 145 157 273 333 2 332 195 201 194 189 196 198 206 206 205 207 209 215 216 216 216 214 218 223 226 228 228
272 258 217 195 193 192 191 189 178 169 175 179 193 169 157 162 181 156 177 230 325 314 341 82 202 207 196 200 213 209 203 201 205 211 215 217 216 214 217 221 227 230 232
255 259 226 199 195 190 178 161 151 154 156 170 190 195 176 186 171 149 138 147 61 324 351 343 295 244 228 211 230 208 201 198 202 205 209 212 216 216 216 220 227 233 234
236 239 199 188 179 160 144 130 129 137 118 169 215 205 182 216 161 151 156 154 143 344 354 304 315 315 302 164 176 177 180 171 187 193 198 199 205 209 212 219 223 228 231
221 213 185 178 169 140 128 128 109 110 99 120 202 195 178 233 173 162 159 160 160 179 270 286 300 305 300 227 193 185 191 182 178 178 187 184 182 187 194 201 206 215 223
200 136 148 150 136 119 118 115 111 100 98 43 77 73 54 41 69 97 143 150 154 160 193 240 240 269 277 289 52 184 204 178 176 175 180 178 174 171 179 189 194 199 208
156 142 138 132 131 122 124 117 113 106 92 54 47 71 48 47 58 55 89 106 116 134 166 271 324 339 26 23 22 1 103 169 152 158 165 162 151 152 157 168 181 179 177
136 135 137 127 129 126 125 125 132 107 94 76 55 63 48 53 55 51 64 67 85 109 142 151 345 356 5 12 17 39 69 109 115 116 146 151 149 132 121 129 141 152 156
105 93 102 104 113 121 115 117 118 102 93 87 78 76 61 65 56 52 65 67 70 80 97 121 12 341 360 18 27 25 49 28 57 71 85 88 99 100 101 106 110 116 120
117 113 105 110 112 103 99 98 98 95 88 78 75 83 74 74 72 71 74 71 79 76 76 89 76 31 16 1 38 29 21 8 28 45 53 64 73 82 82 91 103 118 129
120 122 109 93 91 93 90 102 105 100 87 75 70 76 77 78 78 79 88 92 91 86 81 85 81 51 25 22 353 332 27 17 20 31 42 31 35 34 39 57 91 123 140
102 98 96 95 89 87 90 97 109 107 101 92 82 72 76 66 68 65 69 79 94 111 119 112 107 92 324 311 333 55 87 63 8 338 46 19 37 22 359 32 50 105 153
107 100 104 104 99 90 100 102 107 115 105 102 98 79 74 66 61 63 66 66 60 66 95 137 133 154 210 255 132 78 107 132 205 249 85 39 24 18 355 28 41 62 78
121 115 114 116 108 89 98 104 109 107 99 96 98 101 98 72 58 82 80 67 55 43 53 80 114 175 237 231 187 172 169 118 45 22 68 93 1 2 2 6 15 40 47
126 127 127 121 111 92 99 110 108 106 99 90 91 83 93 93 71 87 93 88 71 44 50 59 61 50 39 48 79 87 75 87 48 333 7 93 79 14 6 351 359 18 17
128 116 102 100 104 102 102 106 104 102 97 84 62 57 64 83 85 96 109 110 100 56 51 41 36 26 25 31 52 88 123 118 110 331 318 73 77 79 16 327 337 359 11